TimeAKDT,TemperatureF,Dew PointF,Humidity,Sea Level PressureIn,VisibilityMPH,Wind Direction,Wind SpeedMPH,Gust SpeedMPH,PrecipitationIn,Events,Conditions,WindDirDegrees,DateUTC
12:16 AM,42.8,39.2,87,-9999,10.0,ENE,15.0,-,N/A,,Overcast,70,2013-10-13 08:16:00
12:36 AM,42.8,39.2,87,-9999,10.0,ENE,13.8,-,N/A,,Overcast,70,2013-10-13 08:36:00
12:56 AM,42.8,39.2,87,-9999,10.0,ENE,13.8,-,N/A,,Overcast,70,2013-10-13 08:56:00
1:16 AM,42.8,39.2,87,-9999,10.0,East,13.8,18.4,N/A,,Overcast,90,2013-10-13 09:16:00
1:36 AM,42.8,39.2,87,-9999,10.0,East,10.4,19.6,N/A,,Overcast,90,2013-10-13 09:36:00
1:56 AM,42.8,39.2,87,-9999,10.0,ENE,10.4,-,0.01,,Overcast,70,2013-10-13 09:56:00
2:16 AM,42.8,39.2,87,-9999,10.0,ENE,10.4,-,N/A,,Overcast,70,2013-10-13 10:16:00
2:36 AM,42.8,39.2,87,-9999,10.0,East,11.5,-,N/A,,Overcast,80,2013-10-13 10:36:00
2:56 AM,42.8,39.2,87,-9999,10.0,ENE,10.4,-,N/A,,Overcast,60,2013-10-13 10:56:00
3:16 AM,42.8,39.2,87,-9999,10.0,ENE,11.5,16.1,N/A,,Overcast,70,2013-10-13 11:16:00
3:36 AM,42.8,39.2,87,-9999,10.0,East,10.4,-,N/A,,Overcast,90,2013-10-13 11:36:00
3:56 AM,42.8,39.2,87,-9999,10.0,ENE,13.8,-,N/A,,Overcast,70,2013-10-13 11:56:00
4:16 AM,42.8,39.2,87,-9999,10.0,ENE,12.7,-,N/A,,Overcast,70,2013-10-13 12:16:00
4:36 AM,42.8,39.2,87,-9999,10.0,ENE,13.8,-,N/A,,Overcast,70,2013-10-13 12:36:00
4:56 AM,44.6,39.2,81,-9999,10.0,East,10.4,-,N/A,,Overcast,80,2013-10-13 12:56:00
5:16 AM,42.8,39.2,87,-9999,10.0,East,12.7,-,N/A,,Overcast,80,2013-10-13 13:16:00
5:36 AM,42.8,37.4,81,-9999,10.0,East,12.7,-,N/A,,Overcast,90,2013-10-13 13:36:00
5:56 AM,42.8,37.4,81,-9999,10.0,East,11.5,-,N/A,,Mostly Cloudy,100,2013-10-13 13:56:00
6:16 AM,42.8,39.2,87,-9999,10.0,East,12.7,-,N/A,,Overcast,100,2013-10-13 14:16:00
6:36 AM,42.8,39.2,87,-9999,10.0,East,9.2,-,N/A,,Mostly Cloudy,80,2013-10-13 14:36:00
6:56 AM,42.8,37.4,81,-9999,10.0,ENE,11.5,-,N/A,,Overcast,70,2013-10-13 14:56:00
7:16 AM,42.8,39.2,87,-9999,10.0,East,11.5,-,N/A,,Mostly Cloudy,80,2013-10-13 15:16:00
7:36 AM,42.8,39.2,87,-9999,10.0,East,13.8,20.7,N/A,,Mostly Cloudy,90,2013-10-13 15:36:00
7:56 AM,42.8,39.2,87,-9999,10.0,East,15.0,-,N/A,,Overcast,90,2013-10-13 15:56:00
8:16 AM,42.8,39.2,87,-9999,10.0,East,10.4,-,N/A,,Overcast,90,2013-10-13 16:16:00
8:36 AM,42.8,39.2,87,-9999,10.0,East,9.2,-,N/A,,Overcast,90,2013-10-13 16:36:00
8:56 AM,42.8,39.2,87,-9999,10.0,East,10.4,-,N/A,,Overcast,80,2013-10-13 16:56:00
9:16 AM,42.8,39.2,87,-9999,10.0,East,11.5,-,N/A,,Overcast,80,2013-10-13 17:16:00
9:36 AM,42.8,39.2,87,-9999,10.0,East,9.2,-,N/A,,Overcast,80,2013-10-13 17:36:00
9:56 AM,42.8,39.2,87,-9999,10.0,East,10.4,-,N/A,,Overcast,80,2013-10-13 17:56:00
10:16 AM,42.8,39.2,87,-9999,10.0,East,9.2,-,N/A,,Overcast,80,2013-10-13 18:16:00
10:36 AM,42.8,39.2,87,-9999,10.0,East,9.2,-,N/A,,Overcast,90,2013-10-13 18:36:00
10:56 AM,42.8,39.2,87,-9999,10.0,East,9.2,-,N/A,,Overcast,90,2013-10-13 18:56:00
11:16 AM,42.8,39.2,87,-9999,10.0,East,8.1,-,N/A,,Overcast,90,2013-10-13 19:16:00
11:36 AM,42.8,39.2,87,-9999,10.0,East,6.9,-,N/A,,Overcast,100,2013-10-13 19:36:00
11:56 AM,42.8,39.2,87,-9999,10.0,East,5.8,-,N/A,,Overcast,100,2013-10-13 19:56:00
12:16 PM,42.8,39.2,87,-9999,10.0,ESE,5.8,-,N/A,,Overcast,110,2013-10-13 20:16:00
12:36 PM,42.8,39.2,87,-9999,10.0,ESE,5.8,-,N/A,,Overcast,110,2013-10-13 20:36:00
3:56 PM,42.8,39.2,87,29.35,10.0,ESE,8.1,-,N/A,,Overcast,110,2013-10-13 23:56:00
4:16 PM,42.8,39.2,87,29.35,10.0,ESE,8.1,-,N/A,,Overcast,110,2013-10-14 00:16:00
4:36 PM,42.8,39.2,87,29.35,10.0,ESE,6.9,-,N/A,,Overcast,120,2013-10-14 00:36:00
4:56 PM,42.8,39.2,87,29.35,10.0,ESE,6.9,-,N/A,,Overcast,120,2013-10-14 00:56:00
5:16 PM,42.8,39.2,87,29.35,10.0,SE,5.8,-,N/A,,Overcast,140,2013-10-14 01:16:00
5:36 PM,42.8,39.2,87,29.35,10.0,SSE,6.9,-,N/A,,Overcast,150,2013-10-14 01:36:00
5:56 PM,41.0,37.4,87,29.35,10.0,SE,6.9,-,N/A,,Overcast,140,2013-10-14 01:56:00
6:16 PM,41.0,37.4,87,29.36,10.0,SE,6.9,-,N/A,,Mostly Cloudy,140,2013-10-14 02:16:00
6:36 PM,41.0,37.4,87,29.36,10.0,SSE,5.8,-,N/A,,Overcast,150,2013-10-14 02:36:00
6:56 PM,41.0,37.4,87,29.36,10.0,SSW,3.5,-,N/A,,Overcast,210,2013-10-14 02:56:00
7:16 PM,41.0,37.4,87,29.36,10.0,SSW,3.5,-,N/A,,Overcast,200,2013-10-14 03:16:00
7:36 PM,41.0,37.4,87,29.36,10.0,South,4.6,-,N/A,,Overcast,190,2013-10-14 03:36:00
7:56 PM,41.0,37.4,87,29.37,10.0,SSE,4.6,-,N/A,,Overcast,150,2013-10-14 03:56:00
8:16 PM,41.0,37.4,87,29.37,10.0,Calm,Calm,-,N/A,,Overcast,0,2013-10-14 04:16:00
8:36 PM,41.0,37.4,87,29.37,10.0,SE,3.5,-,N/A,,Overcast,130,2013-10-14 04:36:00
8:56 PM,39.2,37.4,93,29.37,10.0,ESE,5.8,-,N/A,,Overcast,110,2013-10-14 04:56:00
9:16 PM,39.2,37.4,93,29.37,10.0,SSE,4.6,-,N/A,,Overcast,160,2013-10-14 05:16:00
9:36 PM,39.2,37.4,93,29.38,10.0,SSE,3.5,-,N/A,,Overcast,150,2013-10-14 05:36:00
9:56 PM,39.2,37.4,93,29.38,10.0,SE,3.5,-,N/A,,Overcast,140,2013-10-14 05:56:00
10:16 PM,39.2,37.4,93,29.38,10.0,SSE,4.6,-,N/A,,Overcast,160,2013-10-14 06:16:00
10:36 PM,39.2,37.4,93,29.38,10.0,SSE,5.8,-,N/A,,Overcast,150,2013-10-14 06:36:00
10:56 PM,39.2,37.4,93,29.38,10.0,SSE,3.5,-,N/A,,Overcast,150,2013-10-14 06:56:00
11:16 PM,39.2,37.4,93,29.39,10.0,Calm,Calm,-,N/A,,Overcast,0,2013-10-14 07:16:00
11:36 PM,39.2,37.4,93,29.40,10.0,South,9.2,-,N/A,,Overcast,190,2013-10-14 07:36:00
11:56 PM,39.2,37.4,93,29.40,10.0,South,10.4,-,N/A,,Overcast,190,2013-10-14 07:56:00